Regional Weather Roundup
Issued by NWS

Home | Current Version | Previous Version | Graphics & Text | Print | Product List | Glossary On
Versions: 1 2 3 4 5 6 7 8 9 10 11 12 13 14 15 16 17 18 19 20 21 22 23 24 25 26 27 28 29 30 31 32 33 34 35 36 37 38 39 40 41 42 43 44 45 46 47 48 49 50
000
ASUS45 KABQ 280610
RWRNM
WEATHER ROUNDUP FOR NEW MEXICO
NATIONAL WEATHER SERVICE ALBUQUERQUE NM
1100 PM MST TUE JAN 27 2015

NOTE: "FAIR" MEANS FEW OR NO CLOUDS BELOW 12,000 FEET AGL WITH NO
       SIGNIFICANT WEATHER OR OBSTRUCTIONS TO VISION.

      THIS PRODUCT IS RELEASED AS TWO VERSIONS.  ONE VERSION NEAR
      THE TOP OF THE HOUR CONTAINING PRELIMINARY DATA FROM ALBUQUERQUE
      AND OTHER STATIONS.  A FINAL VERSION WITH ADDITIONAL DATA IS
      ISSUED ABOUT 10 MINUTES AFTER THE HOUR.

NMZ501-503-504-510>518-280700-
NORTHWEST PLATEAU/NORTHCENTRAL MOUNTAINS

CITY           SKY/WX    TMP DP  RH WIND       PRES   REMARKS
FARMINGTON     CLOUDY    39  31  72 NE3       30.27R
6HR MIN TEMP:  39; 6HR MAX TEMP:  58;

LOS ALAMOS     CLEAR     42  32  67 NE3       30.30S
SANTA FE       PTCLDY    38  31  76 N10       30.25S WCI  31
6HR MIN TEMP:  38; 6HR MAX TEMP:  56;

TAOS           PTCLDY    36  28  75 CALM      30.30S
ANGEL FIRE     FAIR      37  31  81 W7        30.31S WCI  31

$$
NMZ402-403-502-505>509-280700-
WESTCENTRAL MOUNTAINS/SOUTHWEST MOUNTAINS

CITY           SKY/WX    TMP DP  RH WIND       PRES   REMARKS
GALLUP         CLEAR     33  29  85 E3        30.31S
6HR MIN TEMP:  33; 6HR MAX TEMP:  54;

GRANTS         MOCLDY    33  31  93 NW3       30.32S
SILVER CITY    PTCLDY    43  34  70 N10       30.28R

$$
NMZ407-409-411-412-280700-
SOUTHERN DESERTS

CITY           SKY/WX    TMP DP  RH WIND       PRES   REMARKS
LORDSBURG      FAIR      41  34  75 S3        30.23S
DEMING         PTCLDY    44  37  76 N7        30.23S
6HR MIN TEMP:  44; 6HR MAX TEMP:  67;

LAS CRUCES     MOCLDY    46  41  81 W7        30.24S
HOLLOMAN AFB   PTCLDY    41  36  82 CALM      30.21R
ALAMOGORDO     PTCLDY    41  36  81 S5        30.22S
T OR C         CLEAR     44  35  70 NW5       30.22S
6HR MIN TEMP:  44; 6HR MAX TEMP:  65;


$$
NMZ519>523-280700-
CENTRAL VALLEYS/CENTRAL HIGHLANDS

CITY           SKY/WX    TMP DP  RH WIND       PRES   REMARKS
ALBUQUERQUE    CLEAR     40  29  64 E3        30.26R
6HR MIN TEMP:  40; 6HR MAX TEMP:  59;

DOUBLE EAGLE   CLEAR     39  32  75 W13       30.28R WCI  32
MORIARTY ARPT  FAIR      34  29  83 W3        30.28R
6HR MIN TEMP:  32; 6HR MAX TEMP:  56;

CLINES CORNERS CLEAR     35  29  78 W14       30.24R WCI  26
6HR MIN TEMP:  35; 6HR MAX TEMP:  52;

BELEN          FAIR      36  31  80 N3        30.25S
6HR MIN TEMP:  34; 6HR MAX TEMP:  59;

SOCORRO        FAIR      44  33  65 CALM      30.24S
6HR MIN TEMP:  41; 6HR MAX TEMP:  62;


$$
NMZ524>526-539-540-280700-
SOUTHCENTRAL MOUNTAINS

CITY           SKY/WX    TMP DP  RH WIND       PRES   REMARKS
RUIDOSO        CLEAR     45  34  65 W6        30.31S

$$
NMZ527>531-280700-
NORTHEAST HIGHLANDS/NORTHEAST PLAINS

CITY           SKY/WX    TMP DP  RH WIND       PRES   REMARKS
LAS VEGAS      CLEAR     43  27  53 CALM      30.18F
6HR MIN TEMP:  39; 6HR MAX TEMP:  54;

RATON          PTCLDY    33  28  81 NE6       30.12F WCI  28
6HR MIN TEMP:  32; 6HR MAX TEMP:  52;

CLAYTON        CLEAR     45  34  65 W14       30.04F
6HR MIN TEMP:  45; 6HR MAX TEMP:  55;


$$
NMZ532>537-280700-
EASTCENTRAL PLAINS

CITY           SKY/WX    TMP DP  RH WIND       PRES   REMARKS
TUCUMCARI      CLEAR     48  38  68 SW17      30.08F
6HR MIN TEMP:  47; 6HR MAX TEMP:  62;

CANNON AFB     CLEAR     49  36  61 W10       30.16R
6HR MIN TEMP:  48; 6HR MAX TEMP:  61;

CLOVIS AIRPORT CLEAR     48  34  57 W10       30.15R

$$
NMZ028-029-538-280700-
SOUTHEAST PLAINS

CITY           SKY/WX    TMP DP  RH WIND       PRES   REMARKS
ROSWELL        CLEAR     45  38  76 NW6       30.17S
6HR MIN TEMP:  41; 6HR MAX TEMP:  66;

ARTESIA        CLEAR     46  41  81 W8        30.18S
CARLSBAD       CLEAR     46  38  73 W3        30.15F
6HR MIN TEMP:  46; 6HR MAX TEMP:  69;

HOBBS          CLEAR     45  36  70 SW7       30.18F


$$


USA.gov is the U.S. government's official web portal to all federal, state and local government web resources and services.